TimeEDT,TemperatureF,Dew PointF,Humidity,Sea Level PressureIn,VisibilityMPH,Wind Direction,Wind SpeedMPH,Gust SpeedMPH,PrecipitationIn,Events,Conditions,WindDirDegrees,DateUTC
12:56 AM,36.9,36.0,97,30.43,8.0,Calm,Calm,-,N/A,,Clear,0,2013-04-26 04:56:00
1:21 AM,35.6,33.8,93,30.36,2.5,Calm,Calm,-,N/A,,Clear,0,2013-04-26 05:21:00
1:30 AM,33.8,32.0,93,30.36,3.0,Calm,Calm,-,N/A,,Clear,0,2013-04-26 05:30:00
1:36 AM,33.8,32.0,93,30.36,1.8,Calm,Calm,-,N/A,,Clear,0,2013-04-26 05:36:00
1:56 AM,32.9,32.0,96,30.44,1.2,Calm,Calm,-,N/A,,Clear,0,2013-04-26 05:56:00
2:00 AM,33.8,32.0,93,30.37,0.8,Calm,Calm,-,N/A,,Clear,0,2013-04-26 06:00:00
2:06 AM,33.8,32.0,93,30.37,0.2,Calm,Calm,-,N/A,Fog,Fog,0,2013-04-26 06:06:00
2:32 AM,30.2,30.2,100,30.37,0.8,Calm,Calm,-,N/A,,Clear,0,2013-04-26 06:32:00
2:34 AM,30.2,30.2,100,30.37,1.2,Calm,Calm,-,N/A,,Clear,0,2013-04-26 06:34:00
2:41 AM,30.2,30.2,100,30.38,1.5,Calm,Calm,-,N/A,,Clear,0,2013-04-26 06:41:00
2:44 AM,30.2,30.2,100,30.38,0.8,Calm,Calm,-,N/A,,Clear,0,2013-04-26 06:44:00
2:56 AM,31.1,31.1,100,30.44,0.5,Calm,Calm,-,N/A,Fog,Light Freezing Fog,0,2013-04-26 06:56:00
3:09 AM,30.2,30.2,100,30.38,1.0,Calm,Calm,-,N/A,,Clear,0,2013-04-26 07:09:00
3:13 AM,30.2,30.2,100,30.38,1.5,Calm,Calm,-,N/A,,Clear,0,2013-04-26 07:13:00
3:30 AM,30.2,30.2,100,30.38,1.2,Calm,Calm,-,N/A,,Clear,0,2013-04-26 07:30:00
3:37 AM,32.0,32.0,100,30.38,2.0,Calm,Calm,-,N/A,,Clear,0,2013-04-26 07:37:00
3:56 AM,32.0,32.0,100,30.45,1.5,Calm,Calm,-,N/A,,Clear,0,2013-04-26 07:56:00
3:59 AM,30.2,30.2,100,30.39,1.0,Calm,Calm,-,N/A,,Clear,0,2013-04-26 07:59:00
4:03 AM,30.2,30.2,100,30.39,0.5,Calm,Calm,-,N/A,Fog,Light Freezing Fog,0,2013-04-26 08:03:00
4:11 AM,30.2,30.2,100,30.40,0.2,Calm,Calm,-,N/A,Fog,Light Freezing Fog,0,2013-04-26 08:11:00
4:32 AM,28.4,28.4,100,30.40,0.2,Calm,Calm,-,N/A,Fog,Light Freezing Fog,0,2013-04-26 08:32:00
4:56 AM,28.4,28.4,100,30.40,0.2,Calm,Calm,-,N/A,Fog,Light Freezing Fog,0,2013-04-26 08:56:00
5:11 AM,28.4,28.4,100,30.40,1.0,Calm,Calm,-,N/A,,Mist,0,2013-04-26 09:11:00
5:13 AM,28.4,28.4,100,30.41,1.8,Calm,Calm,-,N/A,,Mostly Cloudy,0,2013-04-26 09:13:00
5:20 AM,28.4,28.4,100,30.41,2.5,Calm,Calm,-,N/A,,Clear,0,2013-04-26 09:20:00
5:31 AM,28.4,28.4,100,30.41,1.2,Calm,Calm,-,N/A,,Mostly Cloudy,0,2013-04-26 09:31:00
5:35 AM,28.4,28.4,100,30.41,0.8,Calm,Calm,-,N/A,,Mist,0,2013-04-26 09:35:00
5:37 AM,28.4,28.4,100,30.41,0.2,Calm,Calm,-,N/A,Fog,Light Freezing Fog,0,2013-04-26 09:37:00
5:46 AM,28.4,28.4,100,30.41,0.2,Calm,Calm,-,N/A,Fog,Light Freezing Fog,0,2013-04-26 09:46:00
5:56 AM,28.0,28.0,100,30.49,0.2,Calm,Calm,-,N/A,Fog,Light Freezing Fog,0,2013-04-26 09:56:00
6:14 AM,28.4,28.4,100,30.42,0.5,Calm,Calm,-,N/A,Fog,Light Freezing Fog,0,2013-04-26 10:14:00
6:23 AM,28.4,28.4,100,30.42,0.2,Calm,Calm,-,N/A,Fog,Light Freezing Fog,0,2013-04-26 10:23:00
6:32 AM,28.4,28.4,100,30.43,0.2,Calm,Calm,-,N/A,Fog,Light Freezing Fog,0,2013-04-26 10:32:00
7:56 AM,30.2,30.2,100,30.46,0.2,Calm,Calm,-,N/A,Fog,Light Freezing Fog,0,2013-04-26 11:56:00
8:56 AM,36.9,36.9,100,30.56,0.2,Calm,Calm,-,N/A,Fog,Fog,0,2013-04-26 12:56:00
9:04 AM,37.4,37.4,100,30.48,1.5,Calm,Calm,-,N/A,,Mostly Cloudy,0,2013-04-26 13:04:00
9:09 AM,37.4,37.4,100,30.48,3.0,Calm,Calm,-,N/A,,Scattered Clouds,0,2013-04-26 13:09:00
9:56 AM,43.0,41.9,96,30.55,10.0,Variable,4.6,-,N/A,,Clear,0,2013-04-26 13:56:00
10:56 AM,48.9,29.1,46,30.56,10.0,Variable,4.6,-,N/A,,Partly Cloudy,0,2013-04-26 14:56:00
11:56 AM,50.9,27.1,40,30.55,10.0,Variable,3.5,-,N/A,,Clear,0,2013-04-26 15:56:00
12:56 PM,54.0,26.1,34,30.54,10.0,Calm,Calm,-,N/A,,Clear,0,2013-04-26 16:56:00
1:56 PM,54.9,25.2,32,30.53,10.0,Calm,Calm,-,N/A,,Partly Cloudy,0,2013-04-26 17:56:00
2:56 PM,55.9,25.2,31,30.52,10.0,Calm,Calm,-,N/A,,Partly Cloudy,0,2013-04-26 18:56:00
3:56 PM,54.9,26.1,33,30.50,10.0,Calm,Calm,-,N/A,,Clear,0,2013-04-26 19:56:00
4:56 PM,57.2,26.6,31,30.41,10.0,Variable,3.5,-,N/A,,Clear,0,2013-04-26 20:56:00
5:56 PM,55.9,26.1,32,30.46,10.0,Calm,Calm,-,N/A,,Clear,0,2013-04-26 21:56:00
6:56 PM,56.8,25.2,30,30.46,10.0,Calm,Calm,-,N/A,,Clear,0,2013-04-26 22:56:00
7:56 PM,55.4,28.4,36,30.39,10.0,Calm,Calm,-,N/A,,Clear,0,2013-04-26 23:56:00
8:56 PM,50.9,25.2,37,30.47,10.0,Calm,Calm,-,N/A,,Clear,0,2013-04-27 00:56:00
9:56 PM,46.9,28.0,48,30.48,10.0,Calm,Calm,-,N/A,,Clear,0,2013-04-27 01:56:00
10:56 PM,44.6,28.4,53,30.41,10.0,Calm,Calm,-,N/A,,Clear,0,2013-04-27 02:56:00
11:56 PM,41.9,30.0,63,30.47,10.0,Calm,Calm,-,N/A,,Clear,0,2013-04-27 03:56:00